�������l�o���
Date,Time,MP-1(��Sv/h),MP-2(��Sv/h),MP-3(��Sv/h),MP-4(��Sv/h),MP-5(��Sv/h),MP-6(��Sv/h),MP-7(��Sv/h),MP-8(��Sv/h),����,����(m/s),���J
2018/11/12,00:00,0.765,1.155,0.811,1.444,1.038,0.455,0.793,0.754,�k�k��,0.9,��
2018/11/12,00:10,0.766,1.155,0.810,1.443,1.039,0.456,0.797,0.753,�k�k��,0.8,��
2018/11/12,00:20,0.765,1.154,0.809,1.441,1.043,0.456,0.795,0.754,�k,0.9,��
2018/11/12,00:30,0.765,1.157,0.808,1.446,1.039,0.454,0.795,0.755,���k��,1.5,��
2018/11/12,00:40,0.764,1.153,0.809,1.443,1.043,0.454,0.795,0.753,�k��,1.2,��
2018/11/12,00:50,0.765,1.154,0.810,1.446,1.042,0.456,0.794,0.752,�k�k��,0.9,��
2018/11/12,01:00,0.766,1.155,0.809,1.443,1.042,0.454,0.796,0.754,�k�k��,1.1,��
2018/11/12,01:10,0.765,1.156,0.809,1.442,1.038,0.454,0.794,0.753,�k,0.9,��
2018/11/12,01:20,0.765,1.155,0.810,1.441,1.041,0.457,0.795,0.752,�k�k��,1.1,��
2018/11/12,01:30,0.765,1.155,0.809,1.443,1.039,0.456,0.794,0.754,�k��,0.6,��
2018/11/12,01:40,0.764,1.154,0.808,1.441,1.040,0.454,0.793,0.755,�k��,1.5,��
2018/11/12,01:50,0.765,1.154,0.809,1.444,1.043,0.455,0.795,0.753,�k��,1.5,��
2018/11/12,02:00,0.766,1.153,0.810,1.440,1.040,0.454,0.794,0.752,�k��,2.0,��
2018/11/12,02:10,0.767,1.155,0.810,1.441,1.042,0.454,0.795,0.755,�k��,1.5,��
2018/11/12,02:20,0.765,1.155,0.808,1.443,1.040,0.456,0.796,0.753,�k��,1.2,��
2018/11/12,02:30,0.765,1.155,0.810,1.441,1.042,0.455,0.798,0.754,���k��,1.5,��
2018/11/12,02:40,0.763,1.156,0.808,1.443,1.043,0.454,0.795,0.755,�k��,1.1,��
2018/11/12,02:50,0.765,1.153,0.810,1.445,1.041,0.455,0.796,0.752,�k��,1.2,��
2018/11/12,03:00,0.766,1.152,0.809,1.442,1.041,0.456,0.795,0.753,-,CALM,��
2018/11/12,03:10,0.766,1.153,0.810,1.442,1.043,0.454,0.796,0.754,-,CALM,��
2018/11/12,03:20,0.766,1.155,0.810,1.442,1.043,0.457,0.796,0.755,�k��,1.2,��
2018/11/12,03:30,0.767,1.156,0.809,1.445,1.043,0.455,0.795,0.755,�k��,0.9,��
2018/11/12,03:40,0.768,1.157,0.810,1.442,1.042,0.455,0.795,0.753,���k��,1.2,��
2018/11/12,03:50,0.765,1.154,0.810,1.444,1.041,0.454,0.795,0.754,�쐼,0.6,��
2018/11/12,04:00,0.766,1.154,0.812,1.444,1.042,0.455,0.796,0.755,��,0.9,��
2018/11/12,04:10,0.765,1.155,0.810,1.444,1.041,0.456,0.796,0.754,��쐼,1.4,��
2018/11/12,04:20,0.768,1.153,0.810,1.443,1.041,0.456,0.795,0.755,��쐼,0.8,��
2018/11/12,04:30,0.764,1.156,0.810,1.444,1.042,0.455,0.798,0.753,��쐼,0.6,��
2018/11/12,04:40,0.766,1.157,0.808,1.444,1.041,0.456,0.795,0.754,��쓌,0.9,��
2018/11/12,04:50,0.765,1.156,0.809,1.442,1.042,0.455,0.797,0.755,��쓌,1.9,��
2018/11/12,05:00,0.765,1.153,0.809,1.443,1.041,0.455,0.797,0.755,��,1.4,��
2018/11/12,05:10,0.766,1.154,0.810,1.444,1.042,0.457,0.795,0.753,-,CALM,��
2018/11/12,05:20,0.766,1.155,0.809,1.441,1.045,0.455,0.795,0.754,��쐼,0.8,��
2018/11/12,05:30,0.768,1.155,0.811,1.442,1.040,0.456,0.795,0.754,���쐼,0.9,��
2018/11/12,05:40,0.767,1.157,0.811,1.444,1.043,0.456,0.795,0.754,��,1.7,��
2018/11/12,05:50,0.769,1.158,0.810,1.446,1.042,0.455,0.796,0.754,���k��,3.0,��
2018/11/12,06:00,0.767,1.155,0.810,1.443,1.042,0.456,0.795,0.754,���k��,2.6,��
2018/11/12,06:10,0.763,1.156,0.809,1.445,1.043,0.456,0.795,0.754,���k��,2.0,��
2018/11/12,06:20,0.766,1.155,0.811,1.444,1.043,0.455,0.796,0.755,���k��,0.9,��
2018/11/12,06:30,0.766,1.154,0.810,1.445,1.043,0.456,0.795,0.755,�k��,1.2,��
2018/11/12,06:40,0.766,1.155,0.809,1.446,1.042,0.456,0.796,0.755,���k��,0.6,��
2018/11/12,06:50,0.768,1.150,0.810,1.443,1.043,0.456,0.796,0.754,��,0.9,��
2018/11/12,07:00,0.769,1.156,0.812,1.444,1.043,0.457,0.795,0.754,���k��,0.8,��
2018/11/12,07:10,0.765,1.154,0.811,1.443,1.043,0.454,0.794,0.754,���k��,1.4,��
2018/11/12,07:20,0.766,1.153,0.810,1.443,1.041,0.455,0.797,0.756,�k�k��,1.2,��
2018/11/12,07:30,0.765,1.153,0.811,1.443,1.041,0.456,0.796,0.755,�k��,1.1,��
2018/11/12,07:40,0.767,1.157,0.811,1.445,1.041,0.456,0.796,0.754,�k�k��,1.7,��
2018/11/12,07:50,0.767,1.157,0.811,1.443,1.041,0.455,0.797,0.755,�k�k��,2.0,��
2018/11/12,08:00,0.766,1.156,0.810,1.442,1.042,0.457,0.798,0.755,�k�k��,1.2,��
2018/11/12,08:10,0.768,1.155,0.811,1.442,1.044,0.455,0.796,0.755,�k�k��,1.5,��
2018/11/12,08:20,0.767,1.152,0.809,1.444,1.043,0.457,0.795,0.755,�k��,1.2,��
2018/11/12,08:30,0.765,1.154,0.810,1.444,1.042,0.456,0.795,0.755,�k,2.0,��
2018/11/12,08:40,0.766,1.155,0.809,1.446,1.041,0.456,0.795,0.756,�k�k��,1.2,��
2018/11/12,08:50,0.768,1.156,0.810,1.444,1.043,0.454,0.793,0.754,�k��,1.4,��
2018/11/12,09:00,0.768,1.156,0.810,1.446,1.042,0.455,0.796,0.755,�k�k��,2.0,��
2018/11/12,09:10,0.767,1.154,0.811,1.441,1.042,0.455,0.795,0.755,�k�k��,2.2,��
2018/11/12,09:20,0.769,1.155,0.810,1.444,1.044,0.457,0.796,0.756,���k��,1.7,��
2018/11/12,09:30,0.768,1.155,0.810,1.445,1.044,0.456,0.796,0.756,-,CALM,��
2018/11/12,09:40,0.768,1.152,0.812,1.443,1.042,0.456,0.794,0.755,�k�k��,0.8,��
2018/11/12,09:50,0.769,1.153,0.809,1.441,1.045,0.457,0.795,0.755,-,CALM,��
2018/11/12,10:00,0.769,1.151,0.812,1.442,1.044,0.456,0.796,0.755,��쓌,1.1,��
2018/11/12,10:10,0.768,1.151,0.810,1.438,1.044,0.455,0.797,0.756,���k��,1.1,��
2018/11/12,10:20,0.768,1.154,0.812,1.437,1.042,0.456,0.797,0.756,��,0.9,��
2018/11/12,10:30,0.768,1.156,0.812,1.438,1.047,0.456,0.795,0.755,���k��,0.9,��
2018/11/12,10:40,0.767,1.153,0.810,1.437,1.043,0.456,0.797,0.754,�k��,1.4,��
2018/11/12,10:50,0.769,1.153,0.813,1.437,1.044,0.456,0.797,0.753,�k�k��,1.2,��
2018/11/12,11:00,0.767,1.152,0.812,1.436,-,0.456,0.796,0.757,��,1.9,��
2018/11/12,11:10,0.769,1.154,0.811,1.438,-,0.455,0.796,0.756,�k�k��,1.7,��
2018/11/12,11:20,0.766,1.155,0.811,1.436,-,0.454,0.796,0.755,�k��,1.5,��
2018/11/12,11:30,0.767,1.152,0.811,1.439,-,0.454,0.795,0.755,��,1.2,��
2018/11/12,11:40,0.770,1.151,0.809,1.435,-,0.455,0.797,0.755,���쓌,1.2,��
2018/11/12,11:50,0.767,1.156,0.808,1.435,-,0.456,0.798,0.752,�쓌,1.7,��
2018/11/12,12:00,0.768,1.151,0.810,1.436,-,0.457,0.797,0.754,-,CALM,��
2018/11/12,12:10,0.767,1.152,0.810,1.439,-,0.457,0.796,0.753,��,0.6,��
2018/11/12,12:20,0.766,1.157,0.809,1.438,-,0.457,0.797,0.754,���쓌,0.8,��
2018/11/12,12:30,0.767,1.156,0.810,1.442,-,0.456,0.799,0.755,���쓌,1.1,��
2018/11/12,12:40,0.768,1.155,0.811,1.440,-,0.457,0.797,0.754,�k��,1.7,��
2018/11/12,12:50,0.766,1.154,0.811,1.440,-,0.456,0.798,0.754,��,1.5,��
2018/11/12,13:00,0.766,1.153,0.811,1.440,-,0.455,0.799,0.751,�k��,1.7,��
2018/11/12,13:10,0.767,1.155,0.809,1.438,-,0.456,0.799,0.752,���k��,1.2,��
2018/11/12,13:20,0.768,1.154,0.808,1.432,-,0.455,0.797,0.752,�k��,1.5,��
2018/11/12,13:30,0.769,1.155,0.810,1.437,-,0.456,0.799,0.754,�k��,1.5,��
2018/11/12,13:40,0.769,1.156,0.811,1.438,-,0.455,0.798,0.754,�k��,2.2,��
2018/11/12,13:50,0.770,1.156,0.810,1.440,-,0.453,0.799,0.754,�k�k��,2.2,��
2018/11/12,14:00,0.770,1.155,0.812,1.442,-,0.455,0.798,0.754,�k�k��,2.9,��
2018/11/12,14:10,0.767,1.155,0.811,1.440,-,0.455,0.799,0.752,�k�k��,3.0,��
2018/11/12,14:20,0.769,1.155,0.812,1.441,-,0.456,0.797,0.754,�k�k��,3.5,��
2018/11/12,14:30,0.768,1.154,0.811,1.438,-,0.457,0.798,0.755,�k�k��,3.4,��
2018/11/12,14:40,0.769,1.155,0.812,1.440,-,0.455,0.798,0.754,�k��,3.7,��
2018/11/12,14:50,0.770,1.155,0.812,1.442,-,0.456,0.801,0.754,�k,4.1,��
2018/11/12,15:00,0.769,1.154,0.810,1.439,-,0.457,0.798,0.755,�k�k��,3.6,��
2018/11/12,15:10,0.769,1.156,0.810,1.440,-,0.458,0.799,0.754,�k�k��,3.6,��
2018/11/12,15:20,0.768,1.157,0.810,1.442,-,0.457,0.798,0.755,�k,2.3,��
2018/11/12,15:30,0.768,1.157,0.811,1.441,-,0.458,0.797,0.753,�k,3.0,��
2018/11/12,15:40,0.768,1.161,0.811,1.439,-,0.459,0.798,0.754,�k�k��,3.2,��
2018/11/12,15:50,0.767,1.159,0.811,1.443,-,0.457,0.797,0.753,�k,2.5,��
2018/11/12,16:00,0.768,1.160,0.812,1.441,-,0.459,0.797,0.753,�k,3.5,��
2018/11/12,16:10,0.766,1.162,0.812,1.439,-,0.458,0.798,0.753,�k,3.3,��
2018/11/12,16:20,0.769,1.162,0.813,1.442,-,0.458,0.800,0.757,�k,4.3,��
2018/11/12,16:30,0.769,1.165,0.811,1.439,1.046,0.457,0.799,0.757,�k,4.1,��
2018/11/12,16:40,0.769,1.164,0.813,1.441,1.047,0.457,0.799,0.755,�k�k��,4.1,��
2018/11/12,16:50,0.771,1.165,0.814,1.439,1.049,0.458,0.799,0.756,�k�k��,3.9,��
2018/11/12,17:00,0.771,1.163,0.813,1.439,1.048,0.457,0.798,0.758,�k,5.2,��
2018/11/12,17:10,0.772,1.164,0.813,1.442,1.050,0.457,0.799,0.756,�k,6.0,��
2018/11/12,17:20,0.770,1.162,0.814,1.440,1.048,0.455,0.797,0.756,�k,6.4,��
2018/11/12,17:30,0.770,1.166,0.815,1.441,1.047,0.458,0.798,0.755,�k,6.2,��
2018/11/12,17:40,0.770,1.162,0.814,1.442,1.049,0.456,0.798,0.755,�k,5.3,��
2018/11/12,17:50,0.770,1.163,0.814,1.439,1.049,0.459,0.800,0.757,�k�k��,5.8,��
2018/11/12,18:00,0.769,1.163,0.815,1.440,1.049,0.458,0.797,0.756,�k,4.7,��
2018/11/12,18:10,0.771,1.162,0.810,1.440,1.048,0.456,0.799,0.756,�k�k��,4.6,��
2018/11/12,18:20,0.770,1.164,0.813,1.442,1.049,0.457,0.799,0.755,�k�k��,5.3,��
2018/11/12,18:30,0.772,1.164,0.813,1.441,1.050,0.457,0.798,0.756,�k,4.5,��
2018/11/12,18:40,0.771,1.159,0.813,1.444,1.050,0.456,0.798,0.755,�k,5.1,��
2018/11/12,18:50,0.769,1.165,0.814,1.441,1.049,0.458,0.799,0.755,�k�k��,3.9,��
2018/11/12,19:00,0.772,1.163,0.815,1.440,1.050,0.456,0.800,0.755,�k,3.4,��
2018/11/12,19:10,0.770,1.163,0.812,1.441,1.049,0.457,0.799,0.757,�k,3.4,��
2018/11/12,19:20,0.773,1.162,0.814,1.441,1.047,0.457,0.800,0.756,�k,2.8,��
2018/11/12,19:30,0.772,1.162,0.813,1.440,1.048,0.456,0.799,0.757,�k,2.6,��
2018/11/12,19:40,0.772,1.162,0.815,1.441,1.050,0.457,0.799,0.756,�k�k��,2.3,��
2018/11/12,19:50,0.771,1.163,0.813,1.440,1.050,0.456,0.799,0.756,�k,3.4,��
2018/11/12,20:00,0.771,1.162,0.814,1.439,1.049,0.457,0.799,0.756,�k,4.5,��
2018/11/12,20:10,0.771,1.162,0.813,1.442,1.050,0.457,0.801,0.756,�k,4.5,��
2018/11/12,20:20,0.767,1.161,0.814,1.443,1.050,0.456,0.798,0.756,�k�k��,4.2,��
2018/11/12,20:30,0.771,1.164,0.816,1.444,1.047,0.457,0.798,0.755,�k,4.0,��
2018/11/12,20:40,0.768,1.163,0.814,1.442,1.048,0.457,0.800,0.756,�k,3.4,��
2018/11/12,20:50,0.771,1.163,0.814,1.441,1.049,0.457,0.798,0.757,�k,3.8,��
2018/11/12,21:00,0.769,1.162,0.815,1.443,1.050,0.457,0.799,0.757,�k�k��,3.3,��
2018/11/12,21:10,0.771,1.161,0.814,1.443,1.049,0.457,0.797,0.758,�k�k��,3.7,��
2018/11/12,21:20,0.773,1.164,0.816,1.443,1.050,0.456,0.799,0.757,�k�k��,3.8,��
2018/11/12,21:30,0.770,1.163,0.816,1.440,1.050,0.457,0.800,0.755,�k,3.9,�L
2018/11/12,21:40,0.770,1.164,0.813,1.442,1.049,0.459,0.798,0.757,�k,4.1,��
2018/11/12,21:50,0.771,1.162,0.814,1.441,1.049,0.457,0.800,0.757,�k�k��,3.8,��
2018/11/12,22:00,0.771,1.165,0.816,1.443,1.051,0.458,0.798,0.758,�k�k��,4.0,��
2018/11/12,22:10,0.771,1.163,0.812,1.443,1.048,0.457,0.798,0.757,�k�k��,4.3,�L
2018/11/12,22:20,0.771,1.161,0.814,1.443,1.047,0.456,0.799,0.756,�k�k��,5.4,�L
2018/11/12,22:30,0.772,1.161,0.815,1.443,1.049,0.456,0.799,0.755,�k,6.2,��
2018/11/12,22:40,0.771,1.164,0.815,1.441,1.050,0.458,0.798,0.757,�k,6.9,�L
2018/11/12,22:50,0.771,1.163,0.814,1.441,1.048,0.457,0.798,0.757,�k�k��,6.7,��
2018/11/12,23:00,0.770,1.164,0.816,1.440,1.048,0.455,0.798,0.756,�k�k��,6.6,��
2018/11/12,23:10,0.771,1.165,0.813,1.440,1.049,0.456,0.798,0.755,�k�k��,6.8,��
2018/11/12,23:20,0.771,1.164,0.816,1.442,1.048,0.456,0.799,0.757,�k�k��,6.6,��
2018/11/12,23:30,0.771,1.162,0.813,1.441,1.049,0.456,0.798,0.755,�k�k��,5.9,��
2018/11/12,23:40,0.771,1.166,0.815,1.442,1.048,0.458,0.799,0.755,�k�k��,6.2,��
2018/11/12,23:50,0.770,1.165,0.815,1.441,1.048,0.458,0.799,0.757,�k�k��,7.2,��
